[[{"header":{"parameterUnit":"m.s-1","parameterCategory":1,"la1":30.2991,"la2":30.254,"lo1":-89.0895,"lo2":-89.0444,"dy":0.0017,"dx":0.0017,"nx":28,"ny":28,"refTime":"2026-01-05T09:00:00:Z","depth":0,"parameterNumber":2,"parameterNumberName":"U-component_of_WINDS"},"data":[0,0,0,0,0,0,0,0,0,0,0,0,0,0,0,0,0,0,0,0,0,0,0,0,0,0,0,0,0,0,0,0,0,0,0,0,0,0,0,0,0,0,0,0,0,0,0,0,0,0,0,0,0,0,0,0,0,0,-0.3062,-0.3062,0,-0.3092,-0.3092,-0.3092,-0.3065,-0.3064,-0.3063,-0.3062,-0.3096,-0.3098,-0.31,0,0,0,0,0,0,0,0,0,0,0,0,0,-0.2987,-0.2989,-0.3062,-0.3062,-0.3063,-0.3092,-0.3092,-0.3092,-0.3066,-0.3064,-0.3063,-0.3062,-0.3096,-0.3098,-0.31,0,0,0,0,0,0,0,0,0,0,0,0,0,-0.3019,-0.2989,-0.3062,-0.3053,-0.3052,-0.3092,-0.3092,-0.3093,-0.3066,-0.3064,-0.3063,-0.3061,-0.3095,-0.3098,-0.3101,-0.3151,0,0,-0.3109,-0.3111,0,0,0,0,0,0,0,0,-0.3017,-0.3021,-0.3054,-0.3054,-0.3053,-0.3073,-0.3078,-0.3112,-0.3066,-0.3061,-0.3062,-0.306,-0.309,-0.3093,-0.3103,-0.3153,-0.3155,-0.311,-0.3111,-0.3113,-0.3113,0,0,0,0,0,0,0,-0.3015,-0.302,-0.3074,-0.3054,-0.3054,-0.3049,-0.3051,-0.3084,-0.3085,-0.3061,-0.3059,-0.3063,-0.309,-0.31,-0.3103,-0.3155,-0.311,-0.3112,-0.3114,-0.3115,-0.3252,-0.3254,0,0,0,0,0,0,-0.3013,-0.3018,-0.3073,-0.3075,-0.303,-0.3052,-0.3054,-0.3068,-0.3084,-0.3085,-0.3064,-0.3062,-0.3096,-0.31,-0.3104,-0.3167,-0.3113,-0.3115,-0.3117,-0.325,-0.3252,-0.3255,0,0,0,0,0,0,-0.3011,-0.3018,-0.3072,-0.3046,-0.3053,-0.3055,-0.307,-0.307,-0.308,-0.3086,-0.3087,-0.3075,-0.3095,-0.31,-0.314,-0.3168,-0.3117,-0.3119,-0.3248,-0.3251,-0.3253,-0.3292,0,0,0,0,0,0,-0.3009,-0.3018,-0.3036,-0.3047,-0.3054,-0.3106,-0.3072,-0.3072,-0.3085,-0.3081,-0.3096,-0.3097,-0.3094,-0.3136,-0.3143,-0.3171,-0.3122,-0.3245,-0.3249,-0.3253,-0.3289,-0.3296,-0.3303,0,0,0,0,0,-0.3007,-0.3046,-0.3037,-0.3044,-0.3076,-0.3107,-0.3112,-0.3106,-0.3087,-0.3106,-0.3111,-0.3097,-0.3163,-0.3141,-0.3148,-0.3177,-0.3244,-0.3248,-0.3252,-0.3285,-0.3295,-0.3302,0,0,0,0,0,0,-0.3039,-0.3047,-0.3037,-0.308,-0.3093,-0.3103,-0.3127,-0.3116,-0.3136,-0.3132,-0.3125,-0.3129,-0.3172,-0.3178,-0.3153,-0.3229,-0.3201,-0.3207,-0.3223,-0.3232,-0.3239,-0.3237,-0.3124,0,0,0,0,0,-0.3051,-0.3074,-0.308,-0.3118,-0.3125,-0.3125,-0.3138,-0.3133,-0.3147,-0.3152,-0.3159,-0.3175,-0.3199,-0.3216,-0.3238,-0.3289,-0.3293,-0.3313,-0.332,-0.3326,-0.3332,-0.3362,-0.3371,-0.3269,-0.3269,-0.3268,0,0,-0.3076,-0.3083,-0.3098,-0.3125,-0.3134,-0.316,-0.313,-0.3158,-0.3178,-0.3157,-0.3196,-0.3202,-0.3218,-0.3264,-0.3285,-0.3271,-0.3361,-0.3331,-0.3336,-0.3338,-0.3367,-0.3377,-0.3386,-0.3271,-0.3271,-0.327,0,0,-0.3136,-0.3142,-0.3176,-0.3186,-0.32,-0.32,-0.3209,-0.322,-0.3223,-0.3262,-0.3247,-0.3272,-0.3313,-0.3327,-0.3339,-0.3405,-0.3394,-0.3413,-0.345,-0.348,-0.3488,-0.3495,-0.3522,-0.3531,-0.3419,-0.3419,-0.3419,0,-0.3166,-0.3203,-0.3195,-0.3225,-0.3238,-0.3219,-0.3254,-0.3265,-0.3287,-0.3297,-0.3281,-0.3334,-0.3344,-0.3394,-0.3411,-0.342,-0.3432,-0.3412,-0.3487,-0.3494,-0.3501,-0.3526,-0.3536,-0.3421,-0.3421,-0.3421,-0.342,0,-0.3241,-0.3267,-0.3292,-0.3313,-0.3329,-0.3361,-0.336,-0.3377,-0.3371,-0.3373,-0.3414,-0.3425,-0.3451,-0.3462,-0.3456,-0.3513,-0.3504,-0.3488,-0.3459,-0.3513,-0.3537,-0.3546,-0.3424,-0.3424,-0.3423,-0.3422,0,0,-0.3322,-0.3338,-0.3348,-0.3358,-0.3374,-0.3395,-0.3427,-0.3452,-0.3468,-0.3484,-0.3513,-0.355,-0.3535,-0.3549,-0.3545,-0.357,-0.3626,-0.3551,-0.3551,-0.3567,-0.3692,-0.3706,-0.3717,-0.3618,-0.3619,-0.3621,-0.3692,0,-0.3384,-0.3439,-0.3433,-0.3487,-0.3513,-0.3496,-0.3525,-0.3539,-0.3542,-0.3566,-0.357,-0.3597,-0.3574,-0.3583,-0.3607,-0.3614,-0.3651,-0.3608,-0.3647,-0.3649,-0.3646,-0.3729,-0.3744,-0.381,-0.3701,-0.3702,-0.3703,0,-0.3464,-0.3482,-0.3539,-0.3552,-0.3563,-0.3588,-0.3612,-0.3634,-0.365,-0.3651,-0.3667,-0.3659,-0.3694,-0.3664,-0.3714,-0.3685,-0.3701,-0.3707,-0.3709,-0.3714,-0.3681,-0.3739,-0.3831,-0.3842,-0.3717,-0.3716,-0.3715,0,-0.3521,-0.356,-0.3599,-0.3608,-0.3624,-0.3643,-0.3651,-0.3665,-0.3681,-0.3702,-0.3713,-0.3738,-0.3752,-0.3772,-0.3772,-0.375,-0.3824,-0.3793,-0.3828,-0.3829,-0.3846,-0.3845,-0.3944,-0.3852,-0.3852,-0.3852,-0.3852,0,-0.3592,-0.3628,-0.3625,-0.3649,-0.369,-0.3683,-0.3724,-0.373,-0.3743,-0.377,-0.3757,-0.3783,-0.378,-0.3807,-0.3806,-0.385,-0.3856,-0.3859,-0.3859,-0.3862,-0.3862,-0.3874,-0.387,-0.3855,-0.3854,-0.3853,-0.3853,0,-0.3663,-0.3662,-0.3704,-0.3716,-0.372,-0.375,-0.3761,-0.3785,-0.3787,-0.3822,-0.383,-0.3834,-0.3865,-0.3866,-0.3902,-0.3902,-0.3956,-0.3949,-0.395,-0.395,-0.3986,-0.3984,-0.4098,-0.4114,-0.4009,-0.401,-0.4011,0,-0.3709,-0.3736,-0.3751,-0.3768,-0.3777,-0.3804,-0.382,-0.3816,-0.3833,-0.3855,-0.3878,-0.3907,-0.3931,-0.3982,-0.3989,-0.4017,-0.4013,-0.4051,-0.4017,-0.402,-0.4017,-0.4017,-0.4021,-0.4059,-0.406,-0.4061,-0.4061,0,-0.3793,-0.3792,-0.3815,-0.3839,-0.3859,-0.3878,-0.3895,-0.391,-0.3908,-0.3929,-0.396,-0.3978,-0.4015,-0.4046,-0.4073,-0.4084,-0.4074,-0.4072,-0.4082,-0.4086,-0.4086,-0.4089,-0.3971,-0.407,-0.4069,-0.4068,-0.4068,-0.4067,-0.3855,-0.3879,-0.3894,-0.3922,-0.3934,-0.3951,-0.3975,-0.3981,-0.4006,-0.4036,-0.4031,-0.4067,-0.4085,-0.4121,-0.4133,-0.4163,-0.415,-0.4164,-0.4168,-0.4172,-0.4177,-0.408,-0.4167,-0.4167,-0.4167,-0.4167,-0.4166,0,-0.3941,-0.3949,-0.3974,-0.3999,-0.4022,-0.4008,-0.4027,-0.4047,-0.4078,-0.4095,-0.4119,-0.4156,-0.4187,-0.4197,-0.4227,-0.4248,-0.4245,-0.4257,-0.4256,-0.426,-0.4185,-0.4175,-0.4259,-0.4259,-0.4259,-0.4259,-0.4259,-0.4259,-0.3988,-0.4029,-0.403,-0.4078,-0.4087,-0.4121,-0.4134,-0.4151,-0.4164,-0.4206,-0.4231,-0.4237,-0.4252,-0.4284,-0.4312,-0.4314,-0.4327,-0.4342,-0.4343,-0.4274,-0.4264,-0.4256,-0.4246,-0.4344,-0.4344,-0.4414,-0.4415,-0.4416]},{"header":{"parameterUnit":"m.s-1","parameterCategory":1,"la1":30.2991,"la2":30.254,"lo1":-89.0895,"lo2":-89.0444,"dy":0.0017,"dx":0.0017,"nx":28,"ny":28,"refTime":"2026-01-05T09:00:00:Z","depth":0,"parameterNumber":3,"parameterNumberName":"V-component_of_WINDS"},"data":[0,0,0,0,0,0,0,0,0,0,0,0,0,0,0,0,0,0,0,0,0,0,0,0,0,0,0,0,0,0,0,0,0,0,0,0,0,0,0,0,0,0,0,0,0,0,0,0,0,0,0,0,0,0,0,0,0,0,0.5719,0.5719,0,0.5719,0.5719,0.5719,0.5736,0.5737,0.5737,0.5738,0.5736,0.5735,0.5735,0,0,0,0,0,0,0,0,0,0,0,0,0,0.5731,0.5731,0.5719,0.5719,0.5719,0.5719,0.5719,0.5719,0.5736,0.5737,0.5737,0.5738,0.5736,0.5735,0.5735,0,0,0,0,0,0,0,0,0,0,0,0,0,0.5728,0.5731,0.5719,0.5728,0.5728,0.5719,0.5719,0.5719,0.5736,0.5737,0.5737,0.5738,0.5736,0.5735,0.5735,0.5717,0,0,0.5732,0.5732,0,0,0,0,0,0,0,0,0.5728,0.5728,0.5726,0.5727,0.5728,0.5729,0.5723,0.5718,0.5736,0.5733,0.5738,0.5738,0.5733,0.5732,0.5731,0.5717,0.5716,0.5732,0.5732,0.5732,0.5731,0,0,0,0,0,0,0,0.5729,0.5728,0.5719,0.5726,0.5727,0.5731,0.5731,0.5722,0.5729,0.5733,0.5735,0.5735,0.5733,0.5731,0.5731,0.5716,0.5732,0.5732,0.5731,0.5731,0.5687,0.5686,0,0,0,0,0,0,0.5728,0.5728,0.5719,0.5719,0.573,0.573,0.573,0.5728,0.5729,0.573,0.5734,0.5735,0.5732,0.5732,0.5731,0.5709,0.5732,0.5731,0.573,0.5688,0.5687,0.5686,0,0,0,0,0,0,0.5728,0.5727,0.5719,0.5724,0.5723,0.5729,0.5726,0.5727,0.5725,0.573,0.5731,0.5731,0.5733,0.5732,0.572,0.5709,0.5731,0.573,0.5689,0.5687,0.5686,0.5666,0,0,0,0,0,0,0.5728,0.5727,0.5721,0.5724,0.5723,0.5709,0.5725,0.5727,0.5724,0.5726,0.5727,0.5728,0.5733,0.5721,0.5719,0.5709,0.5729,0.569,0.5688,0.5687,0.5668,0.5664,0.5662,0,0,0,0,0,0.5729,0.5714,0.572,0.5719,0.5715,0.5708,0.5708,0.5715,0.5724,0.5717,0.572,0.5728,0.5711,0.572,0.5718,0.5707,0.569,0.5688,0.5687,0.5669,0.5665,0.5662,0,0,0,0,0,0,0.5709,0.5715,0.5721,0.5708,0.5707,0.5711,0.5703,0.571,0.5707,0.5709,0.5717,0.5717,0.5704,0.5704,0.5714,0.5689,0.5702,0.57,0.5689,0.5685,0.5682,0.5682,0.5729,0,0,0,0,0,0.5703,0.5698,0.5703,0.5691,0.569,0.5697,0.5694,0.5699,0.5699,0.5699,0.5701,0.5699,0.5694,0.569,0.5685,0.5668,0.5668,0.566,0.5657,0.5654,0.5652,0.5642,0.5638,0.5681,0.5681,0.5681,0,0,0.5691,0.5694,0.5689,0.5687,0.5687,0.5681,0.5696,0.5689,0.5684,0.5697,0.5686,0.5688,0.5687,0.5673,0.5666,0.5673,0.5641,0.5652,0.565,0.5649,0.564,0.5636,0.5633,0.5679,0.568,0.568,0,0,0.5665,0.5667,0.5656,0.5657,0.5657,0.5662,0.5659,0.5662,0.5664,0.5653,0.5663,0.5657,0.5648,0.5646,0.5644,0.5619,0.5626,0.5617,0.56,0.5591,0.5587,0.5584,0.5574,0.557,0.5615,0.5615,0.5615,0,0.5649,0.564,0.565,0.5641,0.564,0.5653,0.5642,0.5642,0.564,0.5638,0.5646,0.5634,0.5635,0.562,0.5613,0.5612,0.5608,0.5616,0.5587,0.5584,0.5582,0.5572,0.5568,0.5614,0.5614,0.5614,0.5614,0,0.562,0.5614,0.5605,0.5604,0.5602,0.5592,0.56,0.5596,0.5602,0.5605,0.5594,0.5595,0.559,0.5588,0.5593,0.5573,0.5577,0.5586,0.5599,0.5576,0.5567,0.5564,0.5612,0.5612,0.5613,0.5613,0,0,0.558,0.5586,0.5582,0.5582,0.5584,0.5579,0.557,0.5566,0.5562,0.5561,0.5553,0.5545,0.5553,0.5551,0.5557,0.5549,0.5527,0.5558,0.5558,0.5551,0.5503,0.5496,0.5491,0.5532,0.5532,0.5531,0.5503,0,0.5554,0.5539,0.5547,0.5531,0.5525,0.5538,0.553,0.553,0.5533,0.5528,0.5531,0.5525,0.5537,0.5536,0.5528,0.5531,0.5517,0.5533,0.5523,0.5523,0.5521,0.5487,0.5478,0.5452,0.55,0.5499,0.5499,0,0.5521,0.5519,0.5502,0.5505,0.5503,0.5496,0.5493,0.5488,0.5488,0.5491,0.5489,0.5497,0.5487,0.5501,0.5488,0.5499,0.5495,0.5496,0.5495,0.5493,0.5508,0.5482,0.5444,0.5439,0.5493,0.5494,0.5494,0,0.5491,0.5485,0.5474,0.5473,0.5477,0.5472,0.5473,0.5474,0.5471,0.5469,0.5467,0.5463,0.5461,0.5457,0.5463,0.5473,0.5449,0.5463,0.5449,0.5449,0.5442,0.5442,0.5401,0.5443,0.5443,0.5443,0.5443,0,0.546,0.5449,0.5461,0.5454,0.5441,0.5451,0.5439,0.5441,0.5442,0.5435,0.5447,0.544,0.5449,0.5443,0.5448,0.5436,0.5435,0.5436,0.5437,0.5434,0.5433,0.543,0.5432,0.5442,0.5442,0.5442,0.5442,0,0.5425,0.5432,0.5421,0.5426,0.5427,0.5417,0.5421,0.5415,0.5419,0.541,0.5409,0.5416,0.5409,0.5415,0.5409,0.5412,0.5395,0.54,0.5395,0.5396,0.5381,0.5382,0.5335,0.5329,0.5376,0.5376,0.5375,0,0.5403,0.5395,0.5399,0.5396,0.5397,0.5391,0.5389,0.5398,0.5395,0.5395,0.5388,0.5383,0.5379,0.5368,0.5371,0.5366,0.537,0.5354,0.5369,0.5366,0.5368,0.5367,0.5366,0.535,0.535,0.5349,0.5349,0,0.5364,0.5368,0.5365,0.5362,0.5359,0.5357,0.5356,0.5353,0.5363,0.5359,0.5352,0.5349,0.5344,0.5337,0.5334,0.5334,0.5343,0.5344,0.5341,0.5336,0.5333,0.5333,0.5385,0.5345,0.5345,0.5346,0.5346,0.5346,0.5334,0.5327,0.5329,0.5324,0.5325,0.5324,0.5318,0.5322,0.5317,0.5313,0.532,0.5312,0.5312,0.5308,0.5308,0.5301,0.5308,0.5303,0.5301,0.5299,0.5296,0.5336,0.5301,0.5301,0.5301,0.5301,0.5301,0,0.5294,0.5296,0.5292,0.5291,0.5287,0.5297,0.5296,0.5292,0.5285,0.5285,0.5282,0.5274,0.5269,0.5273,0.5268,0.5262,0.5265,0.526,0.5259,0.5259,0.5292,0.5295,0.5257,0.5257,0.5257,0.5257,0.5257,0.5257,0.5272,0.5261,0.5265,0.5254,0.5257,0.5249,0.5248,0.5247,0.5247,0.5239,0.5235,0.5238,0.5239,0.5234,0.523,0.5231,0.5228,0.522,0.5223,0.5253,0.5257,0.5261,0.5264,0.522,0.522,0.5191,0.519,0.519]}]]